Weather in Bambari

Central African Republic     5°45′52″N   20°40′47″E
temp.,
°C
wind,
m/s
gust,
m/s
humid.,
%
clouds,
%
prec.,
mm/h
press.,
hPa
HPBL,
m
7 march, sun
sun701:00+26se112389 0.0 100824
04:00+23ene122875 0.0 100823
07:00+25s262688 0.0 1011209
10:00+36s2319100 0.0 10101240
13:00+44e1310100 0.0 10063398
16:00+39nne2313100 0.0 10043834
19:00+29ese012176 0.0 100724
22:00+24s114543 0.0 100824
8 march, mon
mon801:00+23s285945 0.0 1008227
04:00+21s2679100 0.0 1008194
07:00+23s268092 0.0 1011467
10:00+33wsw234199 0.0 10111228
13:00+44w121858 0.0 10062995
16:00+38nne121990 0.0 10043426
19:00+30ssw393688 0.0 1006272
22:00+26ssw2252100 0.0 100842
9 march, tue
tue901:00+24ssw296054 0.0 1008250
04:00+21s267433 0.0 1008180
07:00+23s377248 0.0 1011436
10:00+33s354113 0.0 10101272
13:00+42ssw13207 0.0 10053277
16:00+34wsw222881 0.0 100362
19:00+31w233378 0.0 100664
22:00+28ssw234135 0.0 100752
10 march, wed
wed1001:00+24s285523 0.0 1007173
04:00+22se116649 0.0 100723
07:00+25s135669 0.0 1010203
10:00+36ssw343146 0.0 10091180
13:00+44sse141666 0.0 10043553
16:00+38nw131999 0.0 10023044
19:00+32wsw112999 0.0 100424
22:00+28ssw243945 0.0 100591
11 march, thu
thu1101:00+25sse224936 0.0 100524
04:00+23ssw115550 0.0 100623
07:00+26ne244825 0.0 1008169
10:00+38ssw23250 0.0 10071281
13:00+44ssw141537 0.0 10023656
16:00+40se131787 0.0 10013077
19:00+30ssw113191 0.0 100324
22:00+27se113784 0.0 100524